Home   Weather   Steffisburg   Past weeks

Flag for Switzerland Past Weather in Steffisburg, Bern, Switzerland — Yesterday and Last 2 Weeks

Now
21 °F

Overcast.


Feels Like: 21 °F
Forecast: 15 / 36 °F
Wind: 1 mph from North

Location: Bern / Belp

Current Time: Jan 20, 2017 at 12:44:24 am

Latest Report: Jan 19, 2017 at 11:50 pm


Visibility: 4 mi

Pressure: 30.39 "Hg (28.21 "Hg at 582m altitude)

Humidity: 80%

Dew Point: 16 °F

Location of SteffisburgLocation

Past Weather in Steffisburg — Graph

°F

Steffisburg Temperature Yesterday

Maximum temperature yesterday: 27 °F (at 3:20 pm)
Minimum temperature yesterday: 12 °F (at 7:20 pm)
Average temperature yesterday: 21 °F

High & Low Weather Summary for the Past Weeks

 TemperatureHumidityPressure
High45 °F (Jan 12, 5:50 am)100% (Jan 5, 9:50 am)30.57 "Hg (Jan 5, 9:50 am)
Low1 °F (Jan 6, 8:20 am)63% (Jan 6, 3:20 pm)29.53 "Hg (Jan 12, 11:20 pm)
Average26 °F84%30.17 "Hg
* Reported Jan 4 11:20 pm — Jan 19 11:20 pm, Steffisburg, Weather by CustomWeather, © 2017

Note: Actual official high and low records may vary slightly from our data, if they occured in-between our weather recording intervals... More about our weather records

Advertising

Steffisburg Weather History for the Previous 24 Hours

Scroll right to see more
 ConditionsComfort  
Time TempWeatherWind HumidityBarometerVisibility
11:20 pm
Thu, Jan 19
19 °FOvercast.1 mph86%30.39 "Hg4 mi
10:50 pm19 °FOvercast.1 mph86%30.39 "Hg4 mi
10:20 pm18 °FOvercast.1 mph93%30.39 "Hg4 mi
9:50 pm18 °FOvercast.1 mph86%30.39 "Hg4 mi
9:20 pm14 °FOvercast.1 mph92%30.39 "Hg4 mi
8:50 pm16 °FPassing clouds.6 mph86%30.39 "Hg4 mi
8:20 pm16 °FPassing clouds.6 mph86%30.39 "Hg4 mi
7:50 pm12 °FPassing clouds.3 mph85%30.39 "Hg4 mi
7:20 pm12 °FPassing clouds.3 mph85%30.39 "Hg4 mi
6:50 pm14 °FPassing clouds.2 mph85%30.39 "Hg5 mi
6:20 pm16 °FPassing clouds.1 mph79%30.39 "Hg6 mi
5:50 pm19 °FPassing clouds.3 mph79%30.39 "HgN/A
5:20 pm21 °FPassing clouds.2 mph86%30.36 "HgN/A
4:50 pm23 °FScattered clouds.7 mph74%30.36 "HgN/A
4:20 pm23 °FSunny.3 mph74%30.36 "Hg10 mi
3:50 pm25 °FSunny.3 mph69%30.36 "Hg10 mi
3:20 pm27 °FScattered clouds.3 mph64%30.36 "HgN/A
2:50 pm25 °FScattered clouds.3 mph69%30.36 "HgN/A
2:20 pm25 °FPartly sunny.3 mph69%30.36 "HgN/A
1:50 pm25 °FOvercast.3 mph69%30.39 "HgN/A
1:20 pm25 °FOvercast.3 mph69%30.39 "HgN/A
12:50 pm25 °FOvercast.5 mph69%30.39 "HgN/A
12:20 pm23 °FOvercast.3 mph74%30.39 "HgN/A
11:50 am23 °FOvercast.5 mph74%30.39 "HgN/A
11:20 am23 °FOvercast.6 mph80%30.39 "HgN/A
10:50 am23 °FOvercast.6 mph74%30.39 "HgN/A
10:20 am21 °FOvercast.5 mph74%30.39 "HgN/A
9:50 am21 °FOvercast.6 mph74%30.39 "HgN/A
9:20 am21 °FOvercast.6 mph80%30.39 "HgN/A
8:50 am21 °FOvercast.3 mph74%30.39 "HgN/A
8:20 am21 °FOvercast.5 mph74%30.36 "HgN/A
7:50 am21 °FOvercast.5 mph80%30.36 "HgN/A
7:20 am21 °FOvercast.5 mph74%30.36 "HgN/A
6:50 am21 °FOvercast.3 mph80%30.36 "HgN/A
6:20 am23 °FOvercast.3 mph74%30.36 "HgN/A
5:50 am23 °FOvercast.5 mph74%30.36 "HgN/A
5:20 am23 °FOvercast.3 mph74%30.36 "HgN/A
4:50 am23 °FOvercast.3 mph74%30.36 "HgN/A
4:20 am23 °FOvercast.3 mph74%30.36 "HgN/A
3:50 am23 °FOvercast.5 mph74%30.36 "HgN/A
3:20 am23 °FOvercast.5 mph74%30.36 "HgN/A
2:50 am23 °FOvercast.6 mph74%30.33 "HgN/A
2:20 am25 °FOvercast.7 mph69%30.33 "HgN/A
1:50 am25 °FOvercast.2 mph69%30.33 "HgN/A
1:20 am23 °FOvercast.2 mph80%30.33 "HgN/A
12:50 am23 °FPassing clouds.3 mph80%30.33 "HgN/A
12:20 am25 °FOvercast.2 mph74%30.33 "HgN/A
Weather by CustomWeather, © 2017

See weather overviewHow to use our weather pages